User: anonymous   Login
Location: Unspecified
(0.0000°N, 0.0000°E)
Time: 02:57:38
(UTC+00:00)
Language:

Explorer 25 - Orbit

View from above orbital plane
View from above orbital plane
View from above satellite
View from above satellite

Ground track
Ground track

The orbit data is extracted from the following two-line orbital elements,

1 00932U 64076B   18171.47844584  .00000127  00000-0  39258-4 0  9990
2 00932  81.3416  96.0170 1133775  23.5938 341.3180 12.63928971449756
Epoch (UTC): 20 June 2018 11:28:57
Eccentricity: 0.1133775
inclination: 81.3416°
perigee height: 524 km
apogee height: 2289 km
right ascension of ascending node: 96.0170°
argument of perigee: 23.5938°
revolutions per day: 12.63928971
mean anomaly at epoch: 341.3180°
orbit number at epoch: 44975

The dashed part of the orbit path shows where the satellite is in the earth's shadow,  

DLR